FW0730 Weather Reports


time (UTC)temp
C
wind
direction
speed
KPH
gust
KPH
rain 1hr
cm
rain 24hr
cm
rain mn
cm
humidity
%
barometer
mb
20260508145017 17 113 4.8 11.3 0.00 0.76 0.00 58 1017.4
20260508144017 17 45 1.6 8.0 0.00 0.79 0.00 59 1017.5
20260508143017 17 113 3.2 9.7 0.00 0.79 0.00 55 1017.4
20260508142017 17 68 3.2 6.4 0.00 0.79 0.00 58 1017.4
20260508141017 17 158 3.2 4.8 0.00 0.81 0.00 66 1017.4
20260508140017 17 113 3.2 6.4 0.00 0.81 0.00 67 1017.4
20260508135017 16 113 1.6 4.8 0.00 0.81 0.00 70 1017.4
20260508134017 16 0.0 3.2 0.00 0.81 0.00 70 1017.4
20260508133017 16 45 1.6 4.8 0.00 0.84 0.00 72 1017.3
20260508132017 15 90 1.6 8.0 0.00 0.84 0.00 70 1017.3
20260508131017 15 113 3.2 9.7 0.00 0.84 0.00 72 1017.2
20260508130017 15 113 3.2 6.4 0.00 0.84 0.00 77 1017.1
20260508125017 14 113 1.6 6.4 0.00 0.86 0.00 82 1016.9
20260508124017 14 0.0 4.8 0.00 0.91 0.00 86 1016.7
20260508123017 13 90 1.6 6.4 0.00 0.97 0.00 90 1016.7
20260508122017 13 90 3.2 6.4 0.00 1.09 0.00 95 1016.7
20260508121017 12 0.0 1.6 0.00 1.27 0.00 97 1016.6
20260508120037 12 0.0 0.0 0.00 1.32 0.00 97 1016.4
20260508115017 11 0.0 0.0 0.00 1.32 0.00 97 1016.2
20260508114017 11 0.0 0.0 0.00 1.35 0.00 97 1016.1
20260508113017 11 0.0 0.0 0.00 1.35 0.00 96 1015.8
20260508112017 10 0.0 0.0 0.00 1.35 0.00 97 1015.5
20260508111017 10 0.0 0.0 0.00 1.37 0.00 96 1015.5
20260508110018 10 0.0 0.0 0.00 1.37 0.00 96 1015.4
20260508105017 9 0.0 0.0 0.00 1.37 0.00 96 1015.1
20260508104017 10 0.0 0.0 0.00 1.37 0.00 96 1014.9
20260508103017 9 0.0 0.0 0.00 1.37 0.00 96 1014.6
20260508102017 9 0.0 0.0 0.00 1.37 0.00 96 1014.6
20260508101017 10 0.0 0.0 0.00 1.37 0.00 96 1014.3
20260508100017 10 0.0 0.0 0.00 1.37 0.00 96 1014.5
20260508095017 10 0.0 0.0 0.00 1.37 0.00 96 1014.4
20260508094017 10 0.0 0.0 0.00 1.37 0.00 96 1014.4
20260508093017 10 0.0 0.0 0.00 1.37 0.00 96 1014.6
20260508092017 10 0.0 0.0 0.00 1.37 0.00 96 1014.5
20260508091017 10 0.0 0.0 0.00 1.37 0.00 96 1014.5
20260508090017 10 0.0 0.0 0.00 1.40 0.00 96 1014.6
20260508085037 10 0.0 0.0 0.00 1.40 0.00 96 1014.2
20260508084017 10 0.0 0.0 0.00 1.42 0.00 96 1014.3
20260508083517 10 0.0 0.0 0.00 1.42 0.00 96 1014.2
20260508082537 10 0.0 0.0 0.00 1.45 0.00 96 1014.2
20260508081517 10 0.0 0.0 0.00 1.47 0.00 96 1014.1
20260508080517 11 0.0 0.0 0.00 1.50 0.00 96 1014.0
20260508075517 11 0.0 0.0 0.00 1.57 0.00 96 1013.7
20260508074517 11 0.0 0.0 0.00 1.63 0.00 96 1013.9
20260508073517 11 0.0 0.0 0.00 1.68 0.00 96 1013.7
20260508072517 11 0.0 0.0 0.00 1.73 0.00 96 1013.6
20260508071517 11 0.0 0.0 0.00 1.78 0.00 96 1013.6
20260508070538 11 0.0 0.0 0.00 1.85 0.00 96 1013.6
20260508065517 11 0.0 0.0 0.00 1.98 0.00 96 1013.4
20260508064515 11 0.0 0.0 0.00 2.06 0.00 96 1013.4
20260508063537 12 0.0 0.0 0.00 2.24 0.00 96 1013.4
20260508062535 12 0.0 0.0 0.00 2.39 0.00 96 1013.4
20260508061515 12 0.0 0.0 0.00 2.59 0.00 96 1013.5
20260508060515 12 0.0 0.0 0.00 2.97 0.00 96 1013.5
20260508055535 12 0.0 0.0 0.00 3.48 0.00 96 1013.4
20260508054518 12 0.0 0.0 0.00 3.61 0.00 96 1013.5
20260508053515 12 0.0 0.0 0.00 3.84 0.00 96 1013.4
20260508052515 12 0.0 0.0 0.00 4.11 0.00 96 1013.3
20260508051515 12 0.0 0.0 0.00 4.11 0.00 95 1013.4
20260508050515 13 0.0 0.0 0.00 4.11 0.00 95 1013.1
20260508045515 12 0.0 0.0 0.00 4.11 0.00 96 1013.2
20260508044515 13 0.0 0.0 0.00 4.11 0.00 95 1013.0
20260508043515 13 0.0 0.0 0.00 4.11 0.00 95 1012.9
20260508042515 13 0.0 0.0 0.00 4.11 0.00 95 1012.8
20260508041515 13 0.0 0.0 0.00 4.11 0.00 95 1012.8
20260508040515 13 0.0 0.0 0.00 4.11 0.00 95 1012.8
20260508040015 13 0.0 0.0 0.00 4.11 4.11 95 1012.7
20260508035016 13 0.0 0.0 0.00 4.11 4.11 95 1012.7
20260508034136 13 0.0 0.0 0.00 4.14 4.11 95 1012.6
20260508033016 13 0.0 0.0 0.00 4.19 4.11 95 1012.8
20260508032016 14 0.0 0.0 0.00 4.39 4.11 95 1012.6
20260508031016 14 0.0 0.0 0.00 4.70 4.11 95 1012.7
20260508030016 14 0.0 0.0 0.00 4.90 4.11 95 1012.6
20260508025016 14 0.0 0.0 0.00 5.00 4.11 95 1012.5
20260508024016 14 0.0 0.0 0.00 5.08 4.11 94 1012.4
20260508023016 14 0.0 3.2 0.00 5.13 4.11 94 1012.3
20260508022016 14 0.0 0.0 0.00 5.18 4.11 94 1012.2
20260508021016 14 0.0 0.0 0.00 5.23 4.11 94 1012.1
20260508020056 15 0.0 1.6 0.00 5.33 4.11 94 1011.9
20260508015016 15 0.0 1.6 0.00 5.44 4.11 94 1011.6
20260508014016 15 0.0 4.8 0.00 5.54 4.11 94 1011.3
20260508013016 15 0.0 0.0 0.00 5.59 4.11 94 1011.4
20260508012016 15 0.0 0.0 0.00 5.61 4.11 93 1011.4
20260508011016 15 0.0 0.0 0.00 5.64 4.11 93 1011.0
20260508010036 15 0.0 3.2 0.00 5.71 4.11 92 1011.1
20260508005036 15 0 1.6 4.8 0.00 5.82 4.11 92 1010.6
20260508004016 15 0 1.6 6.4 0.00 5.82 4.11 92 1010.2
20260508003016 15 90 3.2 9.7 0.00 5.82 4.11 92 1010.0
20260508002037 15 0.0 6.4 0.00 5.82 4.11 92 1009.7
20260508001016 15 68 1.6 6.4 0.00 5.82 4.11 92 1009.8
20260508000016 15 23 3.2 9.7 0.03 5.82 4.11 92 1009.6
20260507235036 15 90 4.8 17.7 0.05 5.82 4.11 92 1009.3
20260507234016 15 0 3.2 14.5 0.05 5.82 4.11 92 1008.6
20260507233016 15 0 3.2 8.0 0.05 5.82 4.11 93 1009.0
20260507232136 15 0 3.2 12.9 0.05 5.82 4.11 93 1008.8
20260507231016 15 90 4.8 14.5 0.05 5.82 4.11 93 1008.3
20260507230036 15 90 4.8 14.5 0.13 5.79 4.09 93 1008.4
20260507225016 15 68 3.2 14.5 0.10 5.77 4.06 93 1008.5
20260507224016 15 0 4.8 22.5 0.20 5.77 4.06 92 1008.1
20260507223016 16 135 4.8 12.9 0.61 5.77 4.06 92 1007.9
20260507222016 16 135 4.8 17.7 0.66 5.77 4.06 92 1008.0
20260507221016 16 90 6.4 14.5 0.66 5.77 4.06 92 1007.7
20260507220016 16 113 6.4 17.7 0.56 5.66 3.96 91 1007.3
20260507215016 17 135 6.4 16.1 0.56 5.66 3.96 90 1007.3
20260507214016 17 113 6.4 19.3 0.46 5.56 3.86 87 1006.6
20260507213016 20 0 8.0 20.9 0.05 5.16 3.45 82 1006.0
20260507212016 23 113 8.0 16.1 0.00 5.11 3.40 71 1005.2
20260507211036 26 0.0 4.8 0.00 5.11 3.40 67 1005.6
20260507210016 26 0.0 4.8 0.00 5.11 3.40 68 1005.7
20260507205016 25 315 1.6 4.8 0.00 5.11 3.40 68 1006.0
20260507204037 24 293 1.6 4.8 0.00 5.11 3.40 70 1005.8
20260507203036 25 0 1.6 8.0 0.00 5.11 3.40 68 1006.0
20260507202017 25 315 3.2 9.7 0.00 5.11 3.40 67 1006.1
20260507201036 25 158 1.6 6.4 0.00 5.11 3.40 69 1006.1
20260507200017 25 0.0 3.2 0.00 5.11 3.40 72 1006.4
20260507195016 25 0 1.6 3.2 0.00 5.11 3.40 71 1006.6
20260507194017 25 248 1.6 9.7 0.00 5.11 3.40 72 1006.6
20260507193017 25 293 1.6 9.7 0.00 5.11 3.40 74 1006.7
20260507192016 24 293 1.6 9.7 0.00 5.11 3.40 73 1006.9
20260507191016 24 0 3.2 11.3 0.00 5.11 3.40 74 1007.1
20260507190017 23 248 1.6 8.0 0.00 5.11 3.40 78 1007.2
20260507185037 23 315 1.6 6.4 0.00 5.11 3.40 80 1007.2
20260507184037 23 0 1.6 6.4 0.00 5.11 3.40 79 1007.1
20260507183016 22 0 3.2 6.4 0.00 5.11 3.40 80 1007.1
20260507182036 22 338 3.2 6.4 0.00 5.11 3.40 83 1007.1
20260507181036 22 0 3.2 11.3 0.00 5.11 3.40 82 1007.2
20260507180017 22 315 1.6 4.8 0.00 5.28 3.40 88 1007.5
20260507175016 21 270 1.6 9.7 0.00 5.41 3.40 88 1007.9
20260507174017 21 293 1.6 8.0 0.00 5.44 3.40 89 1008.1
20260507173016 21 293 1.6 4.8 0.00 5.44 3.40 92 1007.9
20260507172017 21 293 1.6 9.7 0.00 5.51 3.40 91 1007.7
20260507171017 20 0.0 4.8 0.00 5.66 3.40 93 1008.2
20260507170016 20 0.0 4.8 0.00 5.66 3.40 93 1008.1
20260507165017 21 338 1.6 4.8 0.00 5.69 3.40 94 1007.9
20260507164016 21 0.0 4.8 0.00 5.69 3.40 96 1008.0
20260507163017 20 0.0 3.2 0.00 5.69 3.40 96 1008.4
20260507162017 20 293 1.6 9.7 0.00 5.69 3.40 96 1008.5
20260507161017 20 293 1.6 11.3 0.00 5.69 3.40 96 1008.3
20260507160017 20 23 1.6 11.3 0.03 5.69 3.40 97 1008.0
20260507155016 20 113 1.6 3.2 0.05 5.69 3.40 97 1007.6
20260507154017 20 0.0 1.6 0.08 5.69 3.40 98 1007.0
20260507153017 19 0.0 3.2 0.08 5.69 3.40 98 1007.1
20260507152017 19 0.0 1.6 0.08 5.69 3.40 98 1007.1
20260507151117 19 0.0 0.0 0.10 5.69 3.40 97 1007.7
20260507150017 19 0.0 3.2 0.08 5.66 3.38 98 1008.7